Location: Gro� Glienicke
(52.4675°N, 13.1079°E)
Time: 03:04:49
(UTC+00:00)

Cosmos 1933 - Pass Details

Date: 06 July 2020
Orbit: 547 x 563 km, 82.5° (Epoch: 04 August)

Event Time Altitude Azimuth Distance (km) Brightness Sun altitude
Rises 21:50:54 0° 354° (N) 2,733 8.6 -12.9°
Reaches altitude 10° 21:53:11 10° 2° (N) 1,835 7.2 -13.0°
Maximum altitude 21:56:59 38° 72° (ENE) 846 4.2 -13.2°
Enters shadow 21:59:32 18° 133° (SE) 1,383 4.8 -13.3°
